When you browse on this site, cookies collect data to enhance your experience and personalize the content and advertising you see.
Visit our Privacy Policy to learn more. By continuing to use the site, you agree to this use of cookies and data.
  • Em Portugal
  • Lista de países
  • Para 7 dias
  • Temperatura da água
  • Mapa do tempo
  • Widgets de tempo
  • user-avatar
    Iniciar Sessão

    Previsão horária em Shusha

    Hoje, 29 Fevereiro, Sábado

    Tempo Temperatura Precipitação Vento Pressão Humidade
    00:00 +6°C° 0 mm 2 m/s 656 mmHg 44%
    01:00 +7°C° 0 mm 1 m/s 656 mmHg 45%
    02:00 +7°C° 0 mm 1 m/s 656 mmHg 47%
    03:00 +7°C° 0 mm 1 m/s 656 mmHg 48%
    04:00 +6°C° 0 mm 1 m/s 656 mmHg 50%
    05:00 +6°C° 0 mm 1 m/s 656 mmHg 53%
    06:00 +5°C° 0 mm 1 m/s 656 mmHg 55%
    07:00 +6°C° 0 mm 1 m/s 656 mmHg 55%
    08:00 +7°C° 0 mm 1 m/s 656 mmHg 55%
    09:00 +7°C° 0 mm 2 m/s 656 mmHg 54%
    10:00 +8°C° 0 mm 2 m/s 656 mmHg 53%
    11:00 +8°C° 0 mm 2 m/s 656 mmHg 51%
    12:00 +9°C° 0 mm 2 m/s 656 mmHg 50%
    13:00 +9°C° 0 mm 2 m/s 655 mmHg 52%
    14:00 +9°C° 0 mm 3 m/s 655 mmHg 54%
    15:00 +9°C° 0 mm 3 m/s 654 mmHg 57%
    16:00 +7°C° 0 mm 2 m/s 654 mmHg 61%
    17:00 +6°C° 0 mm 2 m/s 654 mmHg 66%
    18:00 +6°C° 0 mm 1 m/s 654 mmHg 71%
    19:00 +6°C° 0 mm 1 m/s 654 mmHg 73%
    20:00 +5°C° 0 mm 1 m/s 654 mmHg 74%
    21:00 +5°C° 0 mm 1 m/s 654 mmHg 76%
    22:00 +5°C° 0 mm 1 m/s 653 mmHg 76%
    23:00 +5°C° 0 mm 1 m/s 653 mmHg 76%

    Amanhã, 1 Março, Domingo

    Tempo Temperatura Precipitação Vento Pressão Humidade
    00:00 +5°C° 0 mm 1 m/s 653 mmHg 76%
    01:00 +4°C° 0 mm 1 m/s 653 mmHg 75%
    02:00 +4°C° 0 mm 1 m/s 652 mmHg 75%
    03:00 +4°C° 0 mm 1 m/s 652 mmHg 74%
    04:00 +4°C° 0 mm 1 m/s 652 mmHg 74%
    05:00 +4°C° 0 mm 1 m/s 652 mmHg 73%
    06:00 +4°C° 0 mm 1 m/s 653 mmHg 72%
    07:00 +5°C° 0 mm 1 m/s 653 mmHg 68%
    08:00 +6°C° 0 mm 1 m/s 654 mmHg 64%
    09:00 +8°C° 0 mm 1 m/s 655 mmHg 59%
    10:00 +7°C° 0 mm 2 m/s 655 mmHg 59%
    11:00 +7°C° 0 mm 2 m/s 655 mmHg 58%
    12:00 +8°C° 0 mm 3 m/s 655 mmHg 58%
    13:00 +8°C° 0 mm 3 m/s 655 mmHg 59%
    14:00 +7°C° 0 mm 2 m/s 655 mmHg 60%
    15:00 +7°C° 0 mm 2 m/s 654 mmHg 61%
    16:00 +7°C° 0 mm 2 m/s 655 mmHg 65%
    17:00 +6°C° 0 mm 2 m/s 655 mmHg 69%
    18:00 +6°C° 0 mm 1 m/s 655 mmHg 73%
    19:00 +5°C° 0 mm 1 m/s 656 mmHg 78%
    20:00 +5°C° 0 mm 1 m/s 656 mmHg 83%
    21:00 +4°C° 0 mm 1 m/s 657 mmHg 87%
    22:00 +3°C° 0.3 mm 2 m/s 657 mmHg 89%
    23:00 +2°C° 0.3 mm 2 m/s 657 mmHg 91%

    Depois de amanhã, 2 Março, Segunda-feira

    Tempo Temperatura Precipitação Vento Pressão Humidade
    00:00 +2°C° 0.3 mm 2 m/s 657 mmHg 93%
    01:00 +1°C° 0.5 mm 2 m/s 657 mmHg 93%
    02:00 +1°C° 0.5 mm 2 m/s 657 mmHg 92%
    03:00 +2°C° 0.5 mm 1 m/s 657 mmHg 92%
    04:00 +1°C° 0.4 mm 2 m/s 658 mmHg 93%
    05:00 -1°C° 0.4 mm 2 m/s 658 mmHg 94%
    06:00 -1°C° 0.4 mm 2 m/s 659 mmHg 95%
    07:00 -1°C° 0.4 mm 2 m/s 659 mmHg 93%
    08:00 -1°C° 0.4 mm 2 m/s 660 mmHg 92%
    09:00 +1°C° 0.4 mm 2 m/s 660 mmHg 90%
    10:00 +1°C° 0.1 mm 2 m/s 660 mmHg 89%
    11:00 +1°C° 0.1 mm 2 m/s 660 mmHg 87%
    12:00 +2°C° 0.1 mm 2 m/s 660 mmHg 86%
    13:00 +2°C° 0 mm 2 m/s 660 mmHg 85%
    14:00 +2°C° 0 mm 2 m/s 660 mmHg 84%
    15:00 +2°C° 0 mm 2 m/s 660 mmHg 83%
    16:00 +2°C° 0 mm 2 m/s 660 mmHg 85%
    17:00 +2°C° 0 mm 1 m/s 660 mmHg 87%
    18:00 +2°C° 0 mm 1 m/s 660 mmHg 90%
    19:00 +2°C° 0 mm 1 m/s 660 mmHg 90%
    20:00 +2°C° 0 mm 1 m/s 661 mmHg 90%
    21:00 +2°C° 0 mm 1 m/s 661 mmHg 91%
    22:00 +1°C° 0 mm 0 m/s 661 mmHg 90%
    23:00 +1°C° 0 mm 0 m/s 661 mmHg 90%

    3 Março, Terça-feira

    Tempo Temperatura Precipitação Vento Pressão Humidade
    00:00 +1°C° 0 mm 0 m/s 661 mmHg 90%
    01:00 0°C° 0 mm 0 m/s 661 mmHg 90%
    02:00 0°C° 0 mm 0 m/s 660 mmHg 90%
    03:00 0°C° 0 mm 0 m/s 660 mmHg 90%
    04:00 0°C° 0 mm 0 m/s 660 mmHg 89%
    05:00 0°C° 0 mm 0 m/s 660 mmHg 88%
    06:00 0°C° 0 mm 0 m/s 661 mmHg 87%
    07:00 +1°C° 0 mm 0 m/s 661 mmHg 82%
    08:00 +3°C° 0 mm 1 m/s 662 mmHg 78%
    09:00 +4°C° 0 mm 1 m/s 662 mmHg 73%
    10:00 +5°C° 0 mm 1 m/s 662 mmHg 71%
    11:00 +6°C° 0 mm 1 m/s 662 mmHg 68%
    12:00 +6°C° 0 mm 2 m/s 662 mmHg 66%
    13:00 +7°C° 0 mm 2 m/s 662 mmHg 67%
    14:00 +7°C° 0 mm 2 m/s 661 mmHg 67%
    15:00 +7°C° 0 mm 2 m/s 661 mmHg 68%
    16:00 +7°C° 0 mm 1 m/s 661 mmHg 73%
    17:00 +6°C° 0 mm 1 m/s 661 mmHg 78%
    18:00 +4°C° 0 mm 0 m/s 661 mmHg 83%
    19:00 +4°C° 0 mm 0 m/s 661 mmHg 83%
    20:00 +5°C° 0 mm 1 m/s 661 mmHg 83%
    21:00 +4°C° 0 mm 1 m/s 661 mmHg 82%
    22:00 +3°C° 0 mm 0 m/s 661 mmHg 82%
    23:00 +3°C° 0 mm 0 m/s 661 mmHg 81%

    4 Março, Quarta-feira

    Tempo Temperatura Precipitação Vento Pressão Humidade
    00:00 +3°C° 0 mm 0 m/s 661 mmHg 81%
    01:00 +3°C° 0 mm 0 m/s 661 mmHg 81%
    02:00 +3°C° 0 mm 0 m/s 661 mmHg 80%
    03:00 +2°C° 0 mm 0 m/s 661 mmHg 80%
    04:00 +2°C° 0 mm 0 m/s 661 mmHg 80%
    05:00 +2°C° 0 mm 0 m/s 661 mmHg 80%
    06:00 +2°C° 0 mm 0 m/s 661 mmHg 79%
    07:00 +4°C° 0 mm 0 m/s 662 mmHg 75%
    08:00 +5°C° 0 mm 0 m/s 662 mmHg 70%
    09:00 +6°C° 0 mm 0 m/s 663 mmHg 65%
    10:00 +8°C° 0 mm 1 m/s 663 mmHg 64%
    11:00 +9°C° 0 mm 1 m/s 663 mmHg 62%
    12:00 +9°C° 0 mm 2 m/s 663 mmHg 61%
    13:00 +9°C° 0 mm 2 m/s 662 mmHg 61%
    14:00 +10°C° 0 mm 2 m/s 662 mmHg 61%
    15:00 +10°C° 0 mm 2 m/s 662 mmHg 61%
    16:00 +10°C° 0 mm 1 m/s 661 mmHg 67%
    17:00 +9°C° 0 mm 1 m/s 661 mmHg 74%
    18:00 +7°C° 0 mm 1 m/s 661 mmHg 80%
    19:00 +7°C° 0 mm 1 m/s 661 mmHg 80%
    20:00 +6°C° 0 mm 1 m/s 661 mmHg 81%
    21:00 +6°C° 0 mm 1 m/s 661 mmHg 81%
    22:00 +6°C° 0 mm 1 m/s 661 mmHg 81%
    23:00 +5°C° 0 mm 1 m/s 661 mmHg 81%

    5 Março, Quinta-feira

    Tempo Temperatura Precipitação Vento Pressão Humidade
    00:00 +4°C° 0 mm 0 m/s 660 mmHg 80%
    01:00 +4°C° 0 mm 0 m/s 660 mmHg 80%
    02:00 +4°C° 0 mm 0 m/s 660 mmHg 79%
    03:00 +3°C° 0 mm 0 m/s 660 mmHg 79%
    04:00 +3°C° 0 mm 0 m/s 660 mmHg 78%
    05:00 +3°C° 0 mm 0 m/s 659 mmHg 76%
    06:00 +3°C° 0 mm 0 m/s 659 mmHg 75%
    07:00 +4°C° 0 mm 0 m/s 660 mmHg 71%
    08:00 +6°C° 0 mm 0 m/s 660 mmHg 67%
    09:00 +8°C° 0 mm 1 m/s 660 mmHg 63%
    10:00 +9°C° 0 mm 1 m/s 660 mmHg 61%
    11:00 +10°C° 0 mm 1 m/s 660 mmHg 59%
    12:00 +10°C° 0 mm 2 m/s 660 mmHg 57%
    13:00 +10°C° 0 mm 2 m/s 660 mmHg 60%
    14:00 +10°C° 0 mm 2 m/s 659 mmHg 63%
    15:00 +9°C° 0 mm 2 m/s 659 mmHg 66%
    16:00 +9°C° 0 mm 1 m/s 659 mmHg 72%
    17:00 +8°C° 0 mm 1 m/s 658 mmHg 79%
    18:00 +7°C° 0 mm 1 m/s 658 mmHg 85%
    19:00 +6°C° 0 mm 0 m/s 658 mmHg 86%
    20:00 +5°C° 0 mm 0 m/s 658 mmHg 87%
    21:00 +5°C° 0 mm 0 m/s 658 mmHg 89%
    22:00 +5°C° 0 mm 0 m/s 658 mmHg 88%
    23:00 +4°C° 0 mm 0 m/s 657 mmHg 88%
    Mostrar mais